[[{"header":{"parameterUnit":"m.s-1","parameterCategory":1,"la1":30.2991,"la2":30.254,"lo1":-89.0895,"lo2":-89.0444,"dy":0.0017,"dx":0.0017,"nx":28,"ny":28,"refTime":"2023-10-28T09:00:00:Z","depth":0,"parameterNumber":2,"parameterNumberName":"U-component_of_WINDS"},"data":[0,0,0,0,0,0,0,0,0,0,0,0,0,0,0,0,0,0,0,0,0,0,0,0,0,0,0,0,0,0,0,0,0,0,0,0,0,0,0,0,0,0,0,0,0,0,0,0,0,0,0,0,0,0,0,0,0,0,-2.9122,-2.9122,0,-2.9074,-2.9074,-2.9073,-2.8967,-2.8964,-2.8962,-2.896,-2.8914,-2.8915,-2.8916,0,0,0,0,0,0,0,0,0,0,0,0,0,-2.9127,-2.9127,-2.9122,-2.9122,-2.9121,-2.9074,-2.9073,-2.9073,-2.8967,-2.8964,-2.8962,-2.8959,-2.8914,-2.8915,-2.8916,0,0,0,0,0,0,0,0,0,0,0,0,0,-2.9107,-2.9127,-2.9122,-2.9063,-2.9057,-2.9074,-2.9073,-2.9073,-2.8968,-2.8964,-2.8961,-2.8958,-2.8914,-2.8915,-2.8916,-2.8989,0,0,-2.892,-2.892,0,0,0,0,0,0,0,0,-2.9108,-2.9107,-2.9072,-2.9067,-2.906,-2.9023,-2.9058,-2.9045,-2.8968,-2.9002,-2.896,-2.8956,-2.8953,-2.8951,-2.8949,-2.8987,-2.8985,-2.892,-2.8921,-2.8921,-2.8922,0,0,0,0,0,0,0,-2.9109,-2.9108,-2.9103,-2.9072,-2.9064,-2.9039,-2.9033,-2.9055,-2.8997,-2.8998,-2.8991,-2.8986,-2.895,-2.8948,-2.8947,-2.8984,-2.892,-2.8921,-2.8922,-2.8922,-2.908,-2.9083,0,0,0,0,0,0,-2.9119,-2.911,-2.9105,-2.9102,-2.9076,-2.9042,-2.9035,-2.9038,-2.8996,-2.8986,-2.8989,-2.8981,-2.8948,-2.8946,-2.8945,-2.9028,-2.8921,-2.8922,-2.8923,-2.9077,-2.9081,-2.9085,0,0,0,0,0,0,-2.9119,-2.9119,-2.9107,-2.9104,-2.91,-2.9045,-2.905,-2.9039,-2.9038,-2.8989,-2.8978,-2.8998,-2.8945,-2.8944,-2.8979,-2.9025,-2.8923,-2.8924,-2.9073,-2.9078,-2.9083,-2.9194,0,0,0,0,0,0,-2.912,-2.912,-2.9146,-2.9105,-2.9101,-2.914,-2.9053,-2.904,-2.904,-2.9029,-2.8995,-2.8986,-2.8943,-2.8978,-2.898,-2.9025,-2.8925,-2.9068,-2.9075,-2.9081,-2.9186,-2.9202,-2.9216,0,0,0,0,0,-2.9121,-2.918,-2.9148,-2.9148,-2.9132,-2.9143,-2.914,-2.9088,-2.9044,-2.907,-2.9039,-2.8987,-2.902,-2.8982,-2.8984,-2.903,-2.9065,-2.9073,-2.9081,-2.9179,-2.9199,-2.9216,0,0,0,0,0,0,-2.9229,-2.9174,-2.9137,-2.9185,-2.917,-2.9125,-2.9156,-2.9111,-2.9109,-2.9099,-2.9036,-2.9029,-2.9073,-2.9055,-2.9014,-2.9098,-2.9034,-2.9043,-2.9108,-2.9127,-2.9142,-2.9145,-2.8926,0,0,0,0,0,-2.9259,-2.9271,-2.9222,-2.9269,-2.9263,-2.9212,-2.9214,-2.9176,-2.9157,-2.915,-2.9121,-2.9107,-2.9113,-2.9119,-2.9123,-2.9183,-2.9174,-2.9216,-2.9231,-2.9244,-2.9251,-2.9282,-2.93,-2.911,-2.911,-2.911,0,0,-2.9319,-2.9291,-2.9302,-2.929,-2.9273,-2.9289,-2.9206,-2.9226,-2.9237,-2.9154,-2.9184,-2.9163,-2.9143,-2.9191,-2.9211,-2.9177,-2.9302,-2.9254,-2.9264,-2.9265,-2.9292,-2.931,-2.9326,-2.9115,-2.9115,-2.9114,0,0,-2.9438,-2.9418,-2.9454,-2.9439,-2.9414,-2.938,-2.9389,-2.9352,-2.9334,-2.9364,-2.9302,-2.9315,-2.9328,-2.9316,-2.9312,-2.9428,-2.938,-2.9431,-2.951,-2.9541,-2.9556,-2.9569,-2.961,-2.9626,-2.9439,-2.944,-2.944,0,-2.9517,-2.9536,-2.9479,-2.9502,-2.9499,-2.9424,-2.9462,-2.945,-2.9429,-2.9429,-2.9392,-2.9407,-2.9388,-2.9432,-2.9461,-2.946,-2.9469,-2.9434,-2.9558,-2.9571,-2.9582,-2.9621,-2.9636,-2.9446,-2.9445,-2.9445,-2.9444,0,-2.9634,-2.9649,-2.9682,-2.9662,-2.9663,-2.9693,-2.9642,-2.9651,-2.9613,-2.9583,-2.9615,-2.959,-2.9587,-2.9595,-2.9559,-2.9635,-2.9615,-2.9569,-2.9503,-2.9607,-2.9643,-2.9657,-2.9455,-2.9453,-2.9451,-2.9449,0,0,-2.9818,-2.9767,-2.978,-2.977,-2.9738,-2.9749,-2.9778,-2.9774,-2.9782,-2.9771,-2.9793,-2.9807,-2.9764,-2.976,-2.9722,-2.9749,-2.9843,-2.9699,-2.9698,-2.9727,-2.9925,-2.9959,-2.9977,-2.9811,-2.9814,-2.9816,-2.9927,0,-2.9928,-2.9971,-2.9922,-2.9976,-2.9989,-2.9919,-2.9944,-2.9928,-2.9901,-2.991,-2.9881,-2.9891,-2.9835,-2.9831,-2.9856,-2.9826,-2.9882,-2.9818,-2.9832,-2.9833,-2.9838,-2.9996,-3.0031,-3.0137,-2.994,-2.9943,-2.9944,0,-3.0062,-3.0056,-3.0111,-3.0077,-3.008,-3.0103,-3.0096,-3.0105,-3.0087,-3.0065,-3.0061,-3.0015,-3.0042,-2.9979,-3.0015,-2.9973,-2.9976,-2.9963,-2.9966,-2.9964,-2.9894,-2.9998,-3.0169,-3.0185,-2.9966,-2.9964,-2.9962,0,-3.019,-3.0196,-3.0229,-3.0224,-3.0184,-3.0202,-3.0187,-3.0165,-3.0166,-3.0161,-3.0162,-3.0161,-3.016,-3.0161,-3.0117,-3.0075,-3.0159,-3.0092,-3.0142,-3.0144,-3.0162,-3.0161,-3.0336,-3.0166,-3.0166,-3.0166,-3.0166,0,-3.0317,-3.0354,-3.0286,-3.0307,-3.0346,-3.029,-3.0331,-3.0309,-3.0291,-3.0307,-3.0247,-3.0264,-3.0205,-3.0216,-3.0182,-3.0217,-3.0218,-3.0202,-3.0193,-3.0207,-3.0209,-3.0207,-3.0199,-3.017,-3.0169,-3.0168,-3.0168,0,-3.0466,-3.0422,-3.0454,-3.0415,-3.0406,-3.0436,-3.0403,-3.0421,-3.0392,-3.0413,-3.0415,-3.0369,-3.0379,-3.0335,-3.0338,-3.0315,-3.0368,-3.0347,-3.0374,-3.0367,-3.042,-3.0416,-3.0599,-3.062,-3.0438,-3.044,-3.0442,0,-3.0549,-3.0576,-3.0539,-3.0545,-3.0533,-3.0543,-3.0544,-3.0491,-3.0495,-3.0477,-3.0498,-3.0503,-3.0504,-3.0524,-3.0491,-3.0493,-3.0471,-3.0535,-3.0471,-3.0485,-3.0471,-3.047,-3.0473,-3.0548,-3.0551,-3.0552,-3.0554,0,-3.0702,-3.068,-3.0683,-3.0679,-3.0682,-3.0677,-3.0667,-3.0676,-3.0619,-3.0627,-3.0636,-3.0637,-3.064,-3.0646,-3.0642,-3.0627,-3.0582,-3.0575,-3.0586,-3.0601,-3.0615,-3.0608,-3.041,-3.057,-3.0569,-3.0568,-3.0567,-3.0566,-3.082,-3.084,-3.0818,-3.0824,-3.0811,-3.0805,-3.082,-3.0792,-3.0798,-3.0796,-3.0765,-3.078,-3.0762,-3.0752,-3.0742,-3.0754,-3.0724,-3.0742,-3.0746,-3.075,-3.0759,-3.0615,-3.0754,-3.0753,-3.0753,-3.0752,-3.0752,0,-3.097,-3.0952,-3.0958,-3.0947,-3.0952,-3.0908,-3.0896,-3.0904,-3.0918,-3.0904,-3.0907,-3.0918,-3.0924,-3.0893,-3.0895,-3.0911,-3.089,-3.0913,-3.0911,-3.0908,-3.0786,-3.0776,-3.093,-3.093,-3.093,-3.093,-3.093,-3.093,-3.1048,-3.108,-3.1055,-3.1081,-3.1063,-3.1077,-3.1074,-3.1068,-3.1057,-3.1072,-3.1076,-3.1055,-3.1035,-3.1036,-3.104,-3.103,-3.1034,-3.1064,-3.1048,-3.0934,-3.0917,-3.09,-3.089,-3.1066,-3.1066,-3.1169,-3.117,-3.117]},{"header":{"parameterUnit":"m.s-1","parameterCategory":1,"la1":30.2991,"la2":30.254,"lo1":-89.0895,"lo2":-89.0444,"dy":0.0017,"dx":0.0017,"nx":28,"ny":28,"refTime":"2023-10-28T09:00:00:Z","depth":0,"parameterNumber":3,"parameterNumberName":"V-component_of_WINDS"},"data":[0,0,0,0,0,0,0,0,0,0,0,0,0,0,0,0,0,0,0,0,0,0,0,0,0,0,0,0,0,0,0,0,0,0,0,0,0,0,0,0,0,0,0,0,0,0,0,0,0,0,0,0,0,0,0,0,0,0,0.7141,0.714,0,0.7024,0.7023,0.7021,0.6897,0.6895,0.6893,0.6891,0.6777,0.6776,0.6775,0,0,0,0,0,0,0,0,0,0,0,0,0,0.7266,0.7264,0.7141,0.714,0.7138,0.7024,0.7023,0.7021,0.6897,0.6895,0.6893,0.6891,0.6778,0.6776,0.6774,0,0,0,0,0,0,0,0,0,0,0,0,0,0.7187,0.7264,0.7142,0.7063,0.7054,0.7025,0.7023,0.7021,0.6897,0.6895,0.6892,0.689,0.6778,0.6776,0.6774,0.6815,0,0,0.6768,0.6767,0,0,0,0,0,0,0,0,0.7192,0.7182,0.7076,0.7068,0.7059,0.6972,0.7024,0.6952,0.6898,0.6957,0.6891,0.6888,0.6845,0.6837,0.6821,0.6809,0.6804,0.6768,0.6766,0.6765,0.6765,0,0,0,0,0,0,0,0.7197,0.7187,0.7095,0.7074,0.7064,0.7036,0.7022,0.701,0.6918,0.6952,0.6942,0.693,0.684,0.6823,0.6817,0.6803,0.6768,0.6766,0.6765,0.6764,0.6823,0.6825,0,0,0,0,0,0,0.7214,0.7192,0.7099,0.7092,0.712,0.7036,0.702,0.7003,0.6917,0.6901,0.6932,0.6925,0.6828,0.682,0.6813,0.6856,0.6766,0.6764,0.6762,0.682,0.6823,0.6826,0,0,0,0,0,0,0.7217,0.7206,0.7103,0.7139,0.7124,0.7036,0.7018,0.7002,0.6985,0.6902,0.6886,0.6932,0.6826,0.6816,0.6816,0.6851,0.6763,0.6761,0.6816,0.6821,0.6825,0.6943,0,0,0,0,0,0,0.7221,0.7208,0.722,0.714,0.7123,0.7106,0.702,0.7001,0.6981,0.697,0.6898,0.6884,0.6823,0.6819,0.6814,0.6846,0.6759,0.6813,0.6818,0.6823,0.6936,0.6951,0.6964,0,0,0,0,0,0.7226,0.7259,0.7222,0.7211,0.7136,0.7108,0.7098,0.7026,0.6985,0.6998,0.6945,0.6886,0.6848,0.682,0.6813,0.6846,0.681,0.6817,0.6823,0.693,0.6948,0.6964,0,0,0,0,0,0,0.7346,0.7247,0.7204,0.7212,0.717,0.7087,0.7101,0.7047,0.7017,0.7008,0.6921,0.6906,0.6917,0.6881,0.6852,0.6882,0.6821,0.6826,0.6905,0.6922,0.6936,0.6944,0.6757,0,0,0,0,0,0.7374,0.7358,0.7272,0.7288,0.7268,0.7189,0.7174,0.7123,0.7076,0.7057,0.7004,0.6963,0.6942,0.693,0.6906,0.6931,0.6915,0.695,0.6964,0.6976,0.6982,0.6996,0.7011,0.6847,0.6847,0.6847,0,0,0.743,0.7374,0.7369,0.7311,0.7271,0.7259,0.7174,0.7164,0.7155,0.7056,0.7052,0.7013,0.6962,0.6975,0.6978,0.6946,0.7024,0.6984,0.6994,0.6993,0.7004,0.7019,0.7033,0.6851,0.6851,0.685,0,0,0.7527,0.7482,0.7491,0.7454,0.7396,0.7343,0.7346,0.7272,0.7242,0.7237,0.7163,0.7153,0.7118,0.7085,0.7064,0.7153,0.7099,0.7148,0.7222,0.7236,0.7249,0.726,0.7294,0.7307,0.7154,0.7154,0.7154,0,0.7605,0.7581,0.7503,0.7498,0.7476,0.7386,0.7396,0.7365,0.7303,0.7291,0.7255,0.7211,0.717,0.7176,0.7198,0.7183,0.7186,0.7155,0.7253,0.7264,0.7273,0.7305,0.7317,0.7161,0.716,0.7159,0.7159,0,0.7682,0.7667,0.7682,0.7623,0.7603,0.7606,0.7531,0.7521,0.7473,0.7425,0.7424,0.7372,0.7337,0.7335,0.7287,0.7335,0.7317,0.7269,0.7205,0.7296,0.7325,0.7336,0.717,0.7168,0.7166,0.7164,0,0,0.7848,0.7749,0.7756,0.7729,0.766,0.7649,0.765,0.7615,0.7609,0.757,0.7571,0.7545,0.7501,0.7477,0.7426,0.7439,0.7517,0.7389,0.7387,0.7416,0.757,0.7607,0.7622,0.748,0.7482,0.7484,0.7575,0,0.7934,0.7927,0.7859,0.7873,0.7861,0.7777,0.7778,0.7738,0.7695,0.7681,0.7634,0.7618,0.7559,0.7545,0.7554,0.7505,0.7546,0.7498,0.7483,0.7483,0.7498,0.7636,0.7675,0.7763,0.7585,0.7587,0.7588,0,0.8032,0.7999,0.8012,0.7946,0.7938,0.794,0.7904,0.789,0.7845,0.7813,0.7789,0.7731,0.7731,0.7672,0.7673,0.7642,0.7632,0.7608,0.761,0.7606,0.7541,0.7637,0.7788,0.7803,0.7604,0.7603,0.7602,0,0.8154,0.8113,0.8116,0.8097,0.8019,0.8023,0.7991,0.7943,0.7928,0.7898,0.7887,0.7859,0.7843,0.7824,0.7762,0.7724,0.7771,0.7706,0.7747,0.7749,0.776,0.776,0.7913,0.7753,0.7753,0.7753,0.7753,0,0.8257,0.8269,0.8171,0.8173,0.8185,0.8108,0.8123,0.8084,0.8043,0.8038,0.7965,0.7963,0.788,0.787,0.7822,0.7831,0.7825,0.7801,0.7788,0.7808,0.7811,0.78,0.7793,0.7756,0.7756,0.7755,0.7754,0,0.8395,0.8329,0.8328,0.8255,0.8238,0.825,0.8189,0.819,0.8144,0.8139,0.8134,0.8062,0.8047,0.7983,0.7953,0.792,0.7947,0.7921,0.7962,0.7953,0.7999,0.7996,0.815,0.8168,0.7997,0.7998,0.8,0,0.8465,0.8472,0.8401,0.8392,0.8363,0.8349,0.8334,0.826,0.8247,0.8198,0.8206,0.8185,0.8163,0.8143,0.809,0.8068,0.8041,0.8097,0.8037,0.8058,0.8044,0.8045,0.8047,0.811,0.8112,0.8114,0.8116,0,0.8596,0.8565,0.8543,0.8512,0.8495,0.8468,0.8436,0.8434,0.8352,0.8342,0.8325,0.8309,0.8278,0.8259,0.8228,0.8199,0.8146,0.8135,0.8144,0.8164,0.8188,0.8177,0.7998,0.8132,0.813,0.8129,0.8128,0.8127,0.8703,0.8707,0.8658,0.8638,0.8607,0.858,0.8577,0.8532,0.8515,0.8484,0.8442,0.8432,0.839,0.8343,0.8318,0.8311,0.828,0.8292,0.8295,0.83,0.8311,0.8189,0.8305,0.8304,0.8304,0.8303,0.8303,0,0.8832,0.8797,0.878,0.8738,0.8724,0.8673,0.8637,0.8629,0.8619,0.8584,0.8566,0.8548,0.853,0.8477,0.8455,0.8459,0.8435,0.8456,0.8455,0.845,0.8338,0.8333,0.8477,0.8477,0.8477,0.8477,0.8477,0.8477,0.8897,0.8902,0.8865,0.8855,0.882,0.8808,0.8792,0.8768,0.874,0.8723,0.8708,0.8673,0.8632,0.8606,0.8589,0.8574,0.857,0.8601,0.8578,0.8474,0.8458,0.8442,0.8437,0.86,0.86,0.8691,0.8692,0.8692]}]]